This demonstration page uses our WeatherBlox Daily Observations layout. Learn more.

Left ArrowRight Arrow

Hourly Observations for August 17, 2015

Temp ( °F °C ) Dew Point ( °F °C ) Humidity (%) Winds ( mph kmh ) Pressure ( in mb ) Visibility ( mi km ) Precip ( " mm )
12:15 am 00:15 Cloudy with Mist and Fog 69 20.7 68 20 96 96 NE 7 11 29.94 1014 5 8 N/A
12:35 am 00:35 Cloudy with Mist and Fog 69 20.6 68 19.8 95 95 NNE 7 11 29.94 1014 5 8 N/A
12:55 am 00:55 Cloudy with Mist and Fog 69 20.5 67 19.7 95 95 NE 9 15 29.94 1014 5 8 0.00 0.00
1:15 am 01:15 Cloudy with Mist and Fog 69 20.5 67 19.6 95 95 NNE 7 11 29.97 1015 4 6 N/A
1:35 am 01:35 Cloudy with Mist and Fog 69 20.4 67 19.6 95 95 N 5 7 30.00 1016 3 5 N/A
1:55 am 01:55 Cloudy with Mist and Fog 69 20.3 67 19.6 96 96 NNE 8 13 29.97 1015 3 4 N/A
2:15 am 02:15 Cloudy with Mist and Fog 68 20.1 67 19.5 96 96 NNE 7 11 29.97 1015 2 3 N/A
2:35 am 02:35 Cloudy with Mist and Fog 68 20.1 67 19.5 96 96 NE 6 9 29.97 1015 3 4 N/A
2:55 am 02:55 Cloudy with Mist and Fog 68 20.1 67 19.5 96 96 NE 5 7 29.97 1015 3 4 N/A
3:15 am 03:15 Cloudy with Mist and Fog 68 20.1 67 19.5 96 96 NNE 7 11 29.97 1015 2 3 N/A
3:35 am 03:35 Cloudy with Mist and Fog 68 19.8 67 19.2 96 96 N 10 17 29.97 1015 2 3 N/A
3:55 am 03:55 Cloudy with Mist and Fog 67 19.4 66 18.8 96 96 NE 8 13 29.97 1015 1 1 N/A
4:15 am 04:15 Cloudy with Mist and Fog 67 19.2 65 18.6 96 96 NE 6 9 29.97 1015 1 2 N/A
4:35 am 04:35 Cloudy with Mist and Fog 66 19 65 18.4 96 96 NE 5 7 29.97 1015 2 2 N/A
4:55 am 04:55 Cloudy with Mist and Fog 66 18.8 65 18.2 96 96 NE 7 11 29.97 1015 2 2 N/A
5:15 am 05:15 Cloudy with Mist and Fog 65 18.6 65 18.1 97 97 NE 7 11 29.97 1015 3 4 N/A
5:35 am 05:35 Cloudy with Mist and Fog 65 18.3 64 17.8 97 97 NE 9 15 29.97 1015 2 3 N/A
5:55 am 05:55 Cloudy with Mist and Fog 65 18.1 64 17.6 97 97 NNE 9 15 29.97 1015 2 3 N/A
6:15 am 06:15 Cloudy with Mist and Fog 64 18 64 17.5 97 97 NE 6 9 29.97 1015 2 3 N/A
6:35 am 06:35 Cloudy with Mist and Fog 64 17.9 63 17.4 97 97 NE 8 13 29.97 1015 2 3 N/A
6:55 am 06:55 Cloudy with Mist and Fog 64 18 64 17.5 97 97 NE 8 13 29.97 1015 3 5 0.00 0.00
7:15 am 07:15 Cloudy with Mist and Fog 64 18 64 17.5 97 97 N 7 11 29.97 1015 1 2 N/A
7:35 am 07:35 Cloudy with Mist and Fog 64 17.8 63 17.3 97 97 N 7 11 29.97 1015 1 2 N/A
7:55 am 07:55 Cloudy with Mist and Fog 64 17.7 63 17.2 97 97 NNE 7 11 29.97 1015 1 2 N/A
8:15 am 08:15 Cloudy with Mist and Fog 64 17.6 63 17.1 97 97 N 7 11 29.97 1015 1 2 N/A
8:35 am 08:35 Cloudy with Mist and Fog 64 17.6 63 17.1 97 97 N 8 13 29.97 1015 3 5 N/A
8:55 am 08:55 Cloudy with Mist and Fog 64 17.7 63 17.2 97 97 NNE 7 11 29.97 1015 2 3 N/A
9:15 am 09:15 Cloudy with Mist and Fog 64 17.5 63 17 97 97 NNE 7 11 29.97 1015 1 2 N/A
9:35 am 09:35 Cloudy with Mist and Fog 64 17.6 63 17.1 97 97 NNE 5 7 29.97 1015 1 2 N/A
9:55 am 09:55 Cloudy with Mist and Fog 64 17.6 63 17.1 97 97 N 6 9 29.97 1015 2 2 N/A
10:15 am 10:15 Cloudy with Nearby Thunderstorms 64 17.9 63 17.4 97 97 NNE 8 13 29.97 1015 3 4 N/A
10:35 am 10:35 Cloudy with Mist and Fog 64 18 64 17.5 97 97 NNE 8 13 29.97 1015 4 6 N/A
10:55 am 10:55 Cloudy with Nearby Thunderstorms 64 18 63 17.4 96 96 N 9 15 29.97 1015 5 8 N/A
11:15 am 11:15 Cloudy with Mist and Fog 64 18 63 17.3 96 96 N 10 17 29.97 1015 5 8 N/A
11:35 am 11:35 Cloudy 64 17.5 62 16.8 96 96 NNE 9 15 29.97 1015 7 11 N/A
11:55 am 11:55 Cloudy 64 17.5 62 16.6 95 95 NNE 10 17 29.97 1015 10 16 N/A
12:15 pm 12:15 Cloudy 64 17.5 62 16.6 95 95 NNE 12 19 29.97 1015 10 16 N/A
12:35 pm 12:35 Cloudy 64 17.5 62 16.5 94 94 NE 13 20 29.97 1015 10 16 N/A
12:55 pm 12:55 Cloudy 63 17.3 61 16.2 93 93 NE 10 17 29.97 1015 10 16 N/A
1:15 pm 13:15 Cloudy 64 17.5 61 16.3 93 93 NE 12 19 29.97 1015 10 16 N/A
1:35 pm 13:35 Cloudy 64 17.6 61 16.2 92 92 NE 10 17 29.97 1015 10 16 N/A
1:55 pm 13:55 Cloudy 64 17.5 61 16 91 91 NNE 9 15 29.97 1015 10 16 N/A
2:15 pm 14:15 Cloudy 64 17.5 61 16 91 91 ENE 9 15 29.97 1015 10 16 N/A
2:35 pm 14:35 Cloudy 64 18 61 16.1 89 89 NNE 8 13 29.97 1015 10 16 N/A
2:55 pm 14:55 Cloudy 64 18 61 16 88 88 NE 9 15 29.97 1015 10 16 N/A
3:15 pm 15:15 Cloudy 64 17.8 61 16 89 89 NE 10 17 29.97 1015 10 16 N/A
3:35 pm 15:35 Cloudy 65 18.1 61 16.2 89 89 NE 7 11 29.97 1015 10 16 N/A
3:55 pm 15:55 Cloudy 64 18 61 16 88 88 NNE 5 7 29.97 1015 7 11 N/A
4:15 pm 16:15 Cloudy 65 18.5 61 16.2 87 87 ENE 7 11 29.97 1015 10 16 N/A
4:35 pm 16:35 Cloudy 65 18.6 61 16.3 87 87 NE 7 11 29.97 1015 10 16 N/A
4:55 pm 16:55 Cloudy 66 18.7 61 16.2 85 85 NE 9 15 29.94 1014 10 16 N/A
5:15 pm 17:15 Cloudy 66 18.7 61 16.1 85 85 NE 9 15 29.94 1014 10 16 N/A
5:35 pm 17:35 Cloudy 66 18.7 61 16.1 85 85 NE 9 15 29.94 1014 10 16 N/A
5:55 pm 17:55 Cloudy 65 18.6 61 16 85 85 NE 8 13 29.91 1013 10 16 N/A
6:15 pm 18:15 Cloudy 65 18.5 60 15.7 84 84 NE 10 17 29.91 1013 10 16 N/A
6:35 pm 18:35 Cloudy 65 18.5 60 15.8 84 84 NE 7 11 29.91 1013 10 16 N/A
6:55 pm 18:55 Cloudy 65 18.3 60 15.8 85 85 NE 8 13 29.91 1013 10 16 N/A
7:15 pm 19:15 Cloudy 65 18.1 60 15.7 86 86 E 8 13 29.91 1013 10 16 N/A
7:35 pm 19:35 Cloudy 64 18 60 15.8 87 87 E 7 11 29.91 1013 10 16 N/A
7:55 pm 19:55 Partly Cloudy 64 17.8 61 16 89 89 ENE 6 9 29.91 1013 10 16 N/A
8:15 pm 20:15 Sunny 64 17.5 60 15.8 90 90 E 5 7 29.91 1013 10 16 N/A
8:35 pm 20:35 Sunny 63 17.1 60 15.7 92 92 ENE 5 7 29.91 1013 10 16 N/A
8:55 pm 20:55 Clear 62 16.8 60 15.7 93 93 NNE 3 6 29.91 1013 7 11 N/A
9:15 pm 21:15 Mostly Cloudy 63 17 61 16 94 94 NE 5 7 29.88 1012 7 11 N/A
9:35 pm 21:35 Cloudy 63 17 61 16.1 94 94 NE 6 9 29.88 1012 10 16 N/A
9:55 pm 21:55 Cloudy 63 17.2 61 16.2 94 94 E 7 11 29.88 1012 10 16 N/A
10:15 pm 22:15 Cloudy 63 17.3 61 16.1 93 93 E 5 7 29.88 1012 10 16 N/A
10:35 pm 22:35 Cloudy 63 17.3 61 16.1 93 93 E 6 9 29.88 1012 10 16 N/A
10:55 pm 22:55 Cloudy 64 17.5 61 16.2 92 92 E 5 7 29.88 1012 10 16 N/A
11:15 pm 23:15 Cloudy 63 17.3 61 16.2 93 93 E 8 13 29.88 1012 7 11 N/A
11:35 pm 23:35 Cloudy with Mist and Fog 63 17.3 61 16.3 94 94 E 10 17 29.85 1011 5 8 N/A
11:55 pm 23:55 Cloudy with Mist and Fog 63 17.2 62 16.4 95 95 E 7 11 29.85 1011 5 8 N/A

Powered by AerisWeather